Regional Weather Roundup
Issued by NWS

Home | Current Version | Previous Version | Text Only | Print | Product List | Glossary On
Versions: 1 2 3 4 5 6 7 8 9 10 11 12 13 14 15 16 17 18 19 20 21 22 23 24 25 26 27
000
ASUS42 KKEY 270410
RWRKEY

FLORIDA REGIONAL WEATHER ROUNDUP FOR THE FLORIDA KEYS
NATIONAL WEATHER SERVICE KEY WEST FLORIDA
1200 AM EDT MON MAR 27 2017

...SOUTH FLORIDA AND THE KEYS...

CITY           SKY/WX    TMP DP  RH WIND       PRES   REMARKS
FORT MYERS     MOCLDY    73  60  63 SE6       30.10F
SW REGIONAL AP PTCLDY    69  58  67 SE8       30.10F
NAPLES         CLEAR     69  61  75 E7        30.10F
MIAMI          PTCLDY    72  61  68 NE6       30.09F
WEST KENDALL   CLEAR     66  61  84 CALM      30.09F
HOMESTEAD      CLEAR     72  63  74 E7        30.08F
MARATHON       CLEAR     76  65  68 E8        30.07F
BOCA CHICA NAS CLEAR     74  65  73 E12       30.07F
KEY WEST INTL  CLEAR     75  66  73 E13       30.08F

...INTERNATIONAL WEATHER...

CITY           SKY/WX    TMP DP  RH WIND       PRES   REMARKS
NASSAU BAHAMAS PTCLDY    73  66  78 NE9       30.09S
CANCUN MEXICO  PTCLDY    77  68  73 E5        30.02S
COZUMEL MEXICO   N/A    N/A N/A N/A MISG        N/A

ADJACENT COASTAL WATERS...

STATION/POSITION TIME  SKY/WX   TEMP    WIND        PRES    WAVE
                                AIR SEA DIR/SP/G            HT/PER
                 (UTC)          (F)     (DEG/KT/KT) (MB)    (FT/S)
PULASKI SHOAL LI 0400            74      90/ 14/ 15 1018.3F
SAND KEY         0350            76      90/ 19/ 22 1018.6F
LONG KEY         0300            75 76   80/ 14/ 16 1019.0F
MOLASSES REEF    0400            75 76   70/ 17/ 19 1018.4F
FOWEY ROCKS      0400            74 76   70/ 14/ 16 1019.5F
Buoy 42097       0330                                 N/A     2/ 5

$$




USA.gov is the U.S. government's official web portal to all federal, state and local government web resources and services.